Location: Alfords
(31.4624°N, 83.9238°W)
Time: 21:45:40
(UTC+00:00)

Envisat - Pass Details

Date: 23 September 2021
Orbit: 764 x 766 km, 98.2° (Epoch: 15 October)

Event Time Altitude Azimuth Distance (km) Brightness Sun altitude
Rises 10:15:43 0° 19° (NNE) 3,232 6.6 -15.5°
Reaches altitude 10° 10:18:06 10° 25° (NNE) 2,302 5.9 -15.0°
Maximum altitude 10:23:00 48° 100° (E) 987 4.0 -13.9°
Drops below altitude 10° 10:27:52 10° 174° (S) 2,290 5.5 -12.9°
Sets 10:30:14 0° 180° (S) 3,212 6.2 -12.4°
